Back to Top

Language: 

My Weather Underground Personal Weather Station Historical Data with Graphs...

Delerius Weather Station Historical Data
Daily Summary for March 30, 2017 Units:  English    Metric   Both
« Previous Day
Next Day »
Daily Weekly Monthly Yearly Custom
  High: Low: Average:
Temperature: 65.1 °F 55.0 °F 59 °F
Dew Point: 55.0 °F 47.8 °F 51.9 °F
Humidity: 90 % 61 % 78 %
Wind Speed: 18.0 mph 3.0 mph 10.2 mph
Wind Gust: 30.0 mph - -
Wind:- - SSW
Pressure: 30.01 in 29.84 in -
Precipitation: 0.01 in    
Historical Graphs
 
 
Tabular Data for March 30, 2017
Time Temperature Dew Point Pressure Wind Wind Speed Wind Gust Humidity Rainfall Rate (Hourly) solar Conditions
00:04 55.8 °F 52.3 °F 30.01 in SSW 11.0 mph 19.0 mph 88 % 0.00 in 0 W/m2
00:09 55.8 °F 52.3 °F 30.01 in SSW 11.0 mph 19.0 mph 88 % 0.00 in 0 W/m2
00:14 55.8 °F 52.3 °F 30.01 in SSW 10.0 mph 18.0 mph 88 % 0.00 in 0 W/m2
00:17 55.6 °F 52.1 °F 30.00 in SSW 10.0 mph 18.0 mph 88 % 0.00 in 0 W/m2
00:22 55.8 °F 52.3 °F 30.00 in SSW 11.0 mph 22.0 mph 88 % 0.00 in 0 W/m2
00:27 55.6 °F 52.1 °F 30.00 in SSW 12.0 mph 22.0 mph 88 % 0.00 in 0 W/m2
00:32 55.6 °F 52.1 °F 30.01 in SW 12.0 mph 19.0 mph 88 % 0.00 in 0 W/m2
00:37 55.6 °F 52.4 °F 30.00 in SW 12.0 mph 28.0 mph 89 % 0.00 in 0 W/m2
00:41 55.4 °F 52.2 °F 30.00 in SSW 11.0 mph 28.0 mph 89 % 0.00 in 0 W/m2
00:46 55.2 °F 52.0 °F 30.00 in SSW 9.0 mph 14.0 mph 89 % 0.00 in 0 W/m2
00:52 55.0 °F 51.9 °F 30.00 in SSW 9.0 mph 13.0 mph 89 % 0.00 in 0 W/m2
00:57 55.0 °F 51.9 °F 30.01 in SSW 9.0 mph 16.0 mph 89 % 0.00 in 0 W/m2
01:02 55.0 °F 51.9 °F 30.00 in SSW 9.0 mph 16.0 mph 89 % 0.00 in 0 W/m2
01:07 55.0 °F 51.9 °F 30.00 in SSW 9.0 mph 18.0 mph 89 % 0.00 in 0 W/m2
01:12 55.0 °F 51.9 °F 30.00 in SSW 10.0 mph 18.0 mph 89 % 0.00 in 0 W/m2
01:17 55.0 °F 51.9 °F 30.00 in SSW 9.0 mph 16.0 mph 89 % 0.00 in 0 W/m2
01:22 55.0 °F 51.9 °F 30.00 in SSW 9.0 mph 19.0 mph 89 % 0.00 in 0 W/m2
01:27 55.0 °F 51.9 °F 30.00 in SSW 9.0 mph 19.0 mph 89 % 0.00 in 0 W/m2
01:32 55.0 °F 51.9 °F 30.00 in SSW 10.0 mph 16.0 mph 89 % 0.00 in 0 W/m2
01:37 55.0 °F 51.9 °F 30.00 in SSW 10.0 mph 16.0 mph 89 % 0.00 in 0 W/m2
01:42 55.0 °F 51.9 °F 30.00 in SSW 9.0 mph 16.0 mph 89 % 0.00 in 0 W/m2
01:47 55.0 °F 51.9 °F 30.00 in SSW 9.0 mph 14.0 mph 89 % 0.00 in 0 W/m2
01:48 55.0 °F 51.9 °F 30.00 in SSW 9.0 mph 14.0 mph 89 % 0.00 in 0 W/m2
01:53 55.0 °F 51.9 °F 30.00 in SSW 9.0 mph 14.0 mph 89 % 0.00 in 0 W/m2
01:58 55.0 °F 51.9 °F 30.00 in SSW 8.0 mph 14.0 mph 89 % 0.00 in 0 W/m2
01:59 55.0 °F 51.9 °F 30.00 in SSW 8.0 mph 14.0 mph 89 % 0.00 in 0 W/m2
02:04 55.0 °F 51.9 °F 30.00 in SSW 8.0 mph 14.0 mph 89 % 0.00 in 0 W/m2
02:09 55.0 °F 51.9 °F 30.00 in SW 8.0 mph 12.0 mph 89 % 0.00 in 0 W/m2
02:10 55.0 °F 51.9 °F 30.00 in SW 8.0 mph 12.0 mph 89 % 0.00 in 0 W/m2
02:15 55.0 °F 52.2 °F 30.00 in SW 8.0 mph 14.0 mph 90 % 0.00 in 0 W/m2
02:20 55.0 °F 51.9 °F 29.99 in SSW 10.0 mph 18.0 mph 89 % 0.00 in 0 W/m2
02:25 55.2 °F 52.0 °F 29.99 in SSW 11.0 mph 18.0 mph 89 % 0.00 in 0 W/m2
02:30 55.2 °F 52.0 °F 29.99 in SW 10.0 mph 15.0 mph 89 % 0.00 in 0 W/m2
02:35 55.2 °F 52.0 °F 29.99 in SW 10.0 mph 22.0 mph 89 % 0.00 in 0 W/m2
02:40 55.2 °F 52.0 °F 29.99 in SSW 11.0 mph 22.0 mph 89 % 0.00 in 0 W/m2
02:45 55.2 °F 52.0 °F 29.99 in SW 9.0 mph 16.0 mph 89 % 0.00 in 0 W/m2
02:50 55.4 °F 52.2 °F 29.99 in SW 9.0 mph 19.0 mph 89 % 0.00 in 0 W/m2
02:55 55.4 °F 52.2 °F 29.99 in SW 10.0 mph 19.0 mph 89 % 0.00 in 0 W/m2
03:00 55.4 °F 52.2 °F 29.99 in SSW 10.0 mph 19.0 mph 89 % 0.00 in 0 W/m2
03:06 55.4 °F 52.2 °F 29.99 in SSW 10.0 mph 19.0 mph 89 % 0.00 in 0 W/m2
03:11 55.6 °F 52.1 °F 29.99 in SW 10.0 mph 15.0 mph 88 % 0.00 in 0 W/m2
03:16 55.6 °F 52.1 °F 29.99 in SW 11.0 mph 20.0 mph 88 % 0.00 in 0 W/m2
03:21 55.6 °F 52.1 °F 29.99 in SW 11.0 mph 20.0 mph 88 % 0.00 in 0 W/m2
03:26 55.6 °F 52.1 °F 29.98 in SSW 10.0 mph 15.0 mph 88 % 0.00 in 0 W/m2
03:31 55.6 °F 52.1 °F 29.98 in SSW 10.0 mph 16.0 mph 88 % 0.00 in 0 W/m2
03:36 55.6 °F 52.1 °F 29.98 in SW 11.0 mph 16.0 mph 88 % 0.00 in 0 W/m2
03:41 55.6 °F 52.1 °F 29.98 in SW 11.0 mph 16.0 mph 88 % 0.00 in 0 W/m2
03:46 55.6 °F 52.1 °F 29.98 in SW 10.0 mph 16.0 mph 88 % 0.00 in 0 W/m2
03:51 55.6 °F 52.1 °F 29.98 in SW 10.0 mph 16.0 mph 88 % 0.00 in 0 W/m2
03:56 55.6 °F 52.1 °F 29.98 in SW 9.0 mph 15.0 mph 88 % 0.00 in 0 W/m2
04:01 55.6 °F 52.1 °F 29.98 in SSW 10.0 mph 16.0 mph 88 % 0.00 in 0 W/m2
04:06 55.6 °F 52.1 °F 29.98 in SSW 10.0 mph 18.0 mph 88 % 0.00 in 0 W/m2
04:11 55.6 °F 52.1 °F 29.98 in SW 11.0 mph 18.0 mph 88 % 0.00 in 0 W/m2
04:16 55.6 °F 52.1 °F 29.98 in SW 10.0 mph 16.0 mph 88 % 0.00 in 0 W/m2
04:21 55.6 °F 52.1 °F 29.98 in SSW 9.0 mph 16.0 mph 88 % 0.00 in 0 W/m2
04:26 55.6 °F 52.1 °F 29.98 in SSW 10.0 mph 18.0 mph 88 % 0.00 in 0 W/m2
04:31 55.6 °F 52.1 °F 29.98 in SSW 11.0 mph 18.0 mph 88 % 0.00 in 0 W/m2
04:36 55.6 °F 52.1 °F 29.98 in SW 9.0 mph 16.0 mph 88 % 0.00 in 0 W/m2
04:41 55.6 °F 52.1 °F 29.98 in SW 8.0 mph 11.0 mph 88 % 0.00 in 0 W/m2
04:46 55.6 °F 52.1 °F 29.98 in SW 7.0 mph 11.0 mph 88 % 0.00 in 0 W/m2
04:51 55.6 °F 52.1 °F 29.98 in SW 7.0 mph 14.0 mph 88 % 0.00 in 0 W/m2
04:56 55.6 °F 52.1 °F 29.98 in SW 8.0 mph 14.0 mph 88 % 0.00 in 0 W/m2
05:01 55.6 °F 52.1 °F 29.98 in SW 9.0 mph 19.0 mph 88 % 0.00 in 0 W/m2
05:06 55.6 °F 52.1 °F 29.98 in SW 10.0 mph 19.0 mph 88 % 0.00 in 0 W/m2
05:11 55.6 °F 52.1 °F 29.98 in SW 8.0 mph 13.0 mph 88 % 0.00 in 0 W/m2
05:16 55.6 °F 52.1 °F 29.98 in SW 8.0 mph 13.0 mph 88 % 0.00 in 0 W/m2
05:21 55.6 °F 52.1 °F 29.98 in SW 8.0 mph 15.0 mph 88 % 0.00 in 0 W/m2
05:22 55.6 °F 52.1 °F 29.98 in SW 8.0 mph 15.0 mph 88 % 0.00 in 0 W/m2
05:27 55.6 °F 52.1 °F 29.98 in SW 8.0 mph 15.0 mph 88 % 0.00 in 0 W/m2
05:32 55.6 °F 52.1 °F 29.98 in SW 8.0 mph 13.0 mph 88 % 0.00 in 0 W/m2
05:37 55.6 °F 51.8 °F 29.98 in SW 10.0 mph 18.0 mph 87 % 0.00 in 0 W/m2
05:42 55.8 °F 51.9 °F 29.98 in SW 12.0 mph 19.0 mph 87 % 0.00 in 0 W/m2
05:47 55.8 °F 51.9 °F 29.98 in SW 12.0 mph 22.0 mph 87 % 0.00 in 0 W/m2
05:52 55.8 °F 51.9 °F 29.98 in SW 11.0 mph 22.0 mph 87 % 0.00 in 0 W/m2
05:57 55.8 °F 51.9 °F 29.98 in SW 11.0 mph 18.0 mph 87 % 0.00 in 0 W/m2
06:02 55.8 °F 51.9 °F 29.98 in SW 11.0 mph 20.0 mph 87 % 0.00 in 0 W/m2
06:07 55.8 °F 51.9 °F 29.98 in SW 11.0 mph 24.0 mph 87 % 0.00 in 0 W/m2
06:12 55.6 °F 51.5 °F 29.98 in SW 12.0 mph 24.0 mph 86 % 0.00 in 0 W/m2
06:17 55.6 °F 51.5 °F 29.97 in SW 13.0 mph 21.0 mph 86 % 0.00 in 0 W/m2
06:22 55.4 °F 51.3 °F 29.97 in SW 12.0 mph 21.0 mph 86 % 0.00 in 0 W/m2
06:27 55.2 °F 51.1 °F 29.98 in SW 12.0 mph 22.0 mph 86 % 0.00 in 0 W/m2
06:32 55.2 °F 51.1 °F 29.98 in SW 11.0 mph 22.0 mph 86 % 0.00 in 0 W/m2
06:37 55.2 °F 51.1 °F 29.98 in SW 11.0 mph 18.0 mph 86 % 0.00 in 0 W/m2
06:42 55.0 °F 50.9 °F 29.98 in SW 12.0 mph 21.0 mph 86 % 0.00 in 0 W/m2
06:47 55.0 °F 51.2 °F 29.98 in SW 12.0 mph 21.0 mph 87 % 0.00 in 0 W/m2
06:52 55.0 °F 51.2 °F 29.98 in SW 13.0 mph 20.0 mph 87 % 0.00 in 7 W/m2
06:57 55.0 °F 51.2 °F 29.98 in SW 13.0 mph 20.0 mph 87 % 0.00 in 12 W/m2
07:02 55.0 °F 51.2 °F 29.98 in SW 12.0 mph 20.0 mph 87 % 0.00 in 14 W/m2
07:07 55.0 °F 50.9 °F 29.99 in SW 12.0 mph 19.0 mph 86 % 0.00 in 11 W/m2
07:12 55.2 °F 51.4 °F 29.99 in SW 11.0 mph 19.0 mph 87 % 0.00 in 14 W/m2
07:17 55.0 °F 51.2 °F 29.99 in SW 10.0 mph 16.0 mph 87 % 0.00 in 23 W/m2
07:22 55.0 °F 51.2 °F 29.98 in SW 10.0 mph 19.0 mph 87 % 0.00 in 32 W/m2
07:28 55.0 °F 51.2 °F 29.98 in SW 11.0 mph 19.0 mph 87 % 0.00 in 39 W/m2
07:33 55.0 °F 51.2 °F 29.98 in SW 12.0 mph 18.0 mph 87 % 0.00 in 39 W/m2
07:38 55.0 °F 51.2 °F 29.99 in SW 10.0 mph 18.0 mph 87 % 0.00 in 33 W/m2
07:43 55.2 °F 51.4 °F 29.99 in SW 9.0 mph 14.0 mph 87 % 0.00 in 40 W/m2
07:48 55.2 °F 51.4 °F 29.99 in SW 9.0 mph 14.0 mph 87 % 0.00 in 44 W/m2
07:53 55.2 °F 51.4 °F 29.99 in SW 10.0 mph 16.0 mph 87 % 0.00 in 54 W/m2
07:58 55.2 °F 51.4 °F 29.99 in SW 10.0 mph 16.0 mph 87 % 0.00 in 76 W/m2
08:03 55.2 °F 51.4 °F 29.99 in SW 11.0 mph 20.0 mph 87 % 0.00 in 93 W/m2
08:08 55.4 °F 51.6 °F 29.99 in SW 12.0 mph 20.0 mph 87 % 0.00 in 125 W/m2
08:13 55.6 °F 51.8 °F 29.99 in SW 12.0 mph 19.0 mph 87 % 0.00 in 148 W/m2
08:18 55.8 °F 51.6 °F 29.99 in SW 11.0 mph 19.0 mph 86 % 0.00 in 93 W/m2
08:23 55.8 °F 51.6 °F 29.99 in SW 10.0 mph 19.0 mph 86 % 0.00 in 81 W/m2
08:28 55.8 °F 51.6 °F 29.99 in SW 9.0 mph 19.0 mph 86 % 0.00 in 95 W/m2
08:33 55.9 °F 51.8 °F 29.99 in SW 9.0 mph 16.0 mph 86 % 0.00 in 128 W/m2
08:38 55.9 °F 51.8 °F 29.99 in SW 10.0 mph 15.0 mph 86 % 0.00 in 127 W/m2
08:43 56.1 °F 52.0 °F 29.99 in SW 9.0 mph 15.0 mph 86 % 0.00 in 123 W/m2
08:48 56.1 °F 52.0 °F 29.99 in SW 9.0 mph 15.0 mph 86 % 0.00 in 137 W/m2
08:53 56.3 °F 52.2 °F 29.99 in SW 9.0 mph 15.0 mph 86 % 0.00 in 181 W/m2
08:58 56.5 °F 52.3 °F 29.99 in SW 8.0 mph 14.0 mph 86 % 0.00 in 195 W/m2
09:03 56.7 °F 52.2 °F 29.98 in SW 8.0 mph 16.0 mph 85 % 0.00 in 230 W/m2
09:08 57.0 °F 52.6 °F 29.98 in SW 10.0 mph 18.0 mph 85 % 0.00 in 251 W/m2
09:13 57.2 °F 52.4 °F 29.99 in SSW 11.0 mph 19.0 mph 84 % 0.00 in 148 W/m2
09:15 57.2 °F 52.4 °F 29.99 in SSW 11.0 mph 19.0 mph 84 % 0.00 in 156 W/m2
09:20 57.4 °F 52.6 °F 29.99 in SSW 10.0 mph 19.0 mph 84 % 0.00 in 179 W/m2
09:25 57.4 °F 52.6 °F 29.99 in SSW 10.0 mph 19.0 mph 84 % 0.00 in 162 W/m2
09:30 57.4 °F 52.6 °F 29.98 in SSW 11.0 mph 19.0 mph 84 % 0.00 in 153 W/m2
09:35 57.4 °F 52.6 °F 29.99 in SSW 11.0 mph 19.0 mph 84 % 0.00 in 84 W/m2
09:40 57.0 °F 52.2 °F 29.99 in SSW 11.0 mph 18.0 mph 84 % 0.00 in 56 W/m2
09:45 57.0 °F 52.6 °F 29.99 in SSW 10.0 mph 18.0 mph 85 % 0.00 in 49 W/m2
09:50 56.8 °F 52.7 °F 29.99 in SSW 9.0 mph 18.0 mph 86 % 0.00 in 70 W/m2
09:55 56.8 °F 52.7 °F 29.99 in SSW 10.0 mph 20.0 mph 86 % 0.00 in 102 W/m2
10:00 56.7 °F 52.8 °F 29.99 in SSW 11.0 mph 20.0 mph 87 % 0.00 in 160 W/m2
10:05 56.7 °F 52.8 °F 29.98 in SSW 11.0 mph 19.0 mph 87 % 0.00 in 172 W/m2
10:10 56.7 °F 53.1 °F 29.99 in SSW 11.0 mph 19.0 mph 88 % 0.00 in 167 W/m2
10:15 56.8 °F 53.3 °F 29.99 in SSW 11.0 mph 19.0 mph 88 % 0.00 in 315 W/m2
10:20 57.0 °F 53.5 °F 29.99 in SW 10.0 mph 16.0 mph 88 % 0.00 in 241 W/m2
10:25 57.2 °F 53.4 °F 29.99 in SSW 11.0 mph 19.0 mph 87 % 0.00 in 207 W/m2
10:30 57.2 °F 53.4 °F 29.99 in SSW 10.0 mph 19.0 mph 87 % 0.00 in 243 W/m2
10:35 57.4 °F 53.5 °F 29.99 in SSW 9.0 mph 14.0 mph 87 % 0.00 in 234 W/m2
10:41 57.4 °F 53.5 °F 29.99 in SSW 8.0 mph 15.0 mph 87 % 0.00 in 248 W/m2
10:46 57.6 °F 53.7 °F 29.98 in SSW 8.0 mph 15.0 mph 87 % 0.00 in 403 W/m2
10:51 57.9 °F 53.8 °F 29.99 in SSW 9.0 mph 16.0 mph 86 % 0.00 in 323 W/m2
10:56 58.1 °F 53.6 °F 29.99 in SSW 11.0 mph 21.0 mph 85 % 0.00 in 450 W/m2
11:01 58.5 °F 53.6 °F 29.99 in SSW 13.0 mph 21.0 mph 84 % 0.00 in 301 W/m2
11:06 58.6 °F 53.8 °F 29.99 in SW 13.0 mph 20.0 mph 84 % 0.00 in 355 W/m2
11:11 59.2 °F 54.0 °F 29.99 in SW 12.0 mph 19.0 mph 83 % 0.00 in 471 W/m2
11:16 59.4 °F 53.9 °F 29.99 in SSW 11.0 mph 20.0 mph 82 % 0.00 in 294 W/m2
11:21 59.4 °F 53.9 °F 29.99 in SW 11.0 mph 20.0 mph 82 % 0.00 in 86 W/m2
11:26 59.2 °F 53.4 °F 29.99 in SW 10.0 mph 20.0 mph 81 % 0.00 in 79 W/m2
11:30 59.2 °F 53.4 °F 29.99 in SSW 9.0 mph 18.0 mph 81 % 0.00 in 77 W/m2
11:35 59.0 °F 53.2 °F 29.99 in SW 11.0 mph 21.0 mph 81 % 0.00 in 127 W/m2
11:40 59.2 °F 53.4 °F 29.99 in SW 12.0 mph 22.0 mph 81 % 0.00 in 243 W/m2
11:45 59.2 °F 53.4 °F 29.98 in SW 12.0 mph 22.0 mph 81 % 0.00 in 274 W/m2
11:50 59.4 °F 53.5 °F 29.98 in SW 11.0 mph 21.0 mph 81 % 0.00 in 241 W/m2
11:55 59.4 °F 53.5 °F 29.98 in SSW 11.0 mph 20.0 mph 81 % 0.00 in 169 W/m2
12:00 59.4 °F 53.5 °F 29.98 in SSW 11.0 mph 19.0 mph 81 % 0.00 in 218 W/m2
12:05 59.4 °F 53.5 °F 29.98 in SW 13.0 mph 21.0 mph 81 % 0.00 in 116 W/m2
12:10 59.2 °F 53.4 °F 29.98 in SW 12.0 mph 21.0 mph 81 % 0.00 in 125 W/m2
12:15 59.2 °F 53.4 °F 29.98 in SSW 9.0 mph 15.0 mph 81 % 0.00 in 109 W/m2
12:20 59.2 °F 53.7 °F 29.98 in SSW 8.0 mph 16.0 mph 82 % 0.00 in 149 W/m2
12:25 59.4 °F 53.9 °F 29.98 in SSW 9.0 mph 16.0 mph 82 % 0.00 in 309 W/m2
12:30 59.7 °F 53.9 °F 29.98 in SSW 10.0 mph 18.0 mph 81 % 0.00 in 374 W/m2
12:35 60.3 °F 54.1 °F 29.98 in SSW 11.0 mph 22.0 mph 80 % 0.00 in 327 W/m2
12:40 60.4 °F 53.9 °F 29.97 in SSW 11.0 mph 22.0 mph 79 % 0.00 in 264 W/m2
12:45 60.8 °F 53.9 °F 29.97 in SSW 12.0 mph 22.0 mph 78 % 0.00 in 399 W/m2
12:50 61.0 °F 54.1 °F 29.97 in SSW 13.0 mph 23.0 mph 78 % 0.00 in 193 W/m2
12:55 61.0 °F 54.1 °F 29.97 in SW 13.0 mph 23.0 mph 78 % 0.00 in 123 W/m2
13:00 61.0 °F 54.1 °F 29.97 in SW 12.0 mph 23.0 mph 78 % 0.00 in 357 W/m2
13:05 61.0 °F 53.7 °F 29.97 in SW 13.0 mph 24.0 mph 77 % 0.00 in 225 W/m2
13:10 61.0 °F 53.7 °F 29.97 in SW 15.0 mph 24.0 mph 77 % 0.00 in 114 W/m2
13:11 61.0 °F 53.7 °F 29.97 in SW 15.0 mph 24.0 mph 77 % 0.00 in 114 W/m2
13:16 61.0 °F 53.7 °F 29.97 in SW 14.0 mph 24.0 mph 77 % 0.00 in 104 W/m2
13:21 61.0 °F 54.1 °F 29.97 in SW 12.0 mph 24.0 mph 78 % 0.00 in 204 W/m2
13:26 61.0 °F 53.7 °F 29.97 in SSW 12.0 mph 27.0 mph 77 % 0.00 in 176 W/m2
13:31 61.2 °F 53.5 °F 29.97 in SSW 15.0 mph 27.0 mph 76 % 0.00 in 274 W/m2
13:36 61.3 °F 53.7 °F 29.96 in SSW 16.0 mph 26.0 mph 76 % 0.00 in 190 W/m2
13:41 61.3 °F 53.7 °F 29.96 in SSW 15.0 mph 25.0 mph 76 % 0.00 in 223 W/m2
13:46 61.3 °F 53.7 °F 29.96 in SSW 13.0 mph 24.0 mph 76 % 0.00 in 193 W/m2
13:51 61.5 °F 53.9 °F 29.96 in SSW 12.0 mph 21.0 mph 76 % 0.00 in 359 W/m2
13:56 62.1 °F 54.4 °F 29.96 in SSW 11.0 mph 19.0 mph 76 % 0.00 in 234 W/m2
14:01 62.2 °F 54.2 °F 29.95 in SSW 11.0 mph 22.0 mph 75 % 0.00 in 315 W/m2
14:06 62.4 °F 54.0 °F 29.95 in SSW 13.0 mph 24.0 mph 74 % 0.00 in 227 W/m2
14:11 62.6 °F 54.2 °F 29.95 in SW 14.0 mph 24.0 mph 74 % 0.00 in 330 W/m2
14:16 62.8 °F 54.0 °F 29.95 in SW 15.0 mph 25.0 mph 73 % 0.00 in 394 W/m2
14:21 63.0 °F 54.2 °F 29.95 in SSW 15.0 mph 25.0 mph 73 % 0.00 in 290 W/m2
14:26 63.1 °F 54.3 °F 29.95 in SW 15.0 mph 25.0 mph 73 % 0.00 in 288 W/m2
14:31 63.1 °F 54.3 °F 29.94 in SW 15.0 mph 26.0 mph 73 % 0.00 in 355 W/m2
14:36 63.5 °F 54.3 °F 29.95 in SW 17.0 mph 29.0 mph 72 % 0.00 in 394 W/m2
14:41 63.3 °F 54.1 °F 29.94 in SSW 18.0 mph 30.0 mph 72 % 0.01 in 279 W/m2
14:46 63.3 °F 54.5 °F 29.94 in SSW 16.0 mph 30.0 mph 73 % 0.01 in 332 W/m2
14:51 63.7 °F 54.9 °F 29.94 in SSW 15.0 mph 29.0 mph 73 % 0.01 in 424 W/m2
14:56 63.7 °F 54.5 °F 29.94 in SSW 15.0 mph 29.0 mph 72 % 0.01 in 455 W/m2
15:01 63.7 °F 54.5 °F 29.94 in SSW 16.0 mph 28.0 mph 72 % 0.01 in 454 W/m2
15:06 63.9 °F 54.7 °F 29.94 in SW 14.0 mph 25.0 mph 72 % 0.01 in 255 W/m2
15:11 63.9 °F 54.7 °F 29.94 in SSW 14.0 mph 30.0 mph 72 % 0.01 in 362 W/m2
15:16 64.0 °F 54.4 °F 29.94 in SW 16.0 mph 30.0 mph 71 % 0.01 in 770 W/m2
15:21 64.6 °F 55.0 °F 29.94 in SW 17.0 mph 29.0 mph 71 % 0.01 in 636 W/m2
15:26 64.8 °F 54.3 °F 29.93 in SSW 15.0 mph 26.0 mph 69 % 0.01 in 701 W/m2
15:31 64.6 °F 54.6 °F 29.93 in SW 15.0 mph 26.0 mph 70 % 0.01 in 243 W/m2
15:36 64.6 °F 54.2 °F 29.93 in SW 15.0 mph 25.0 mph 69 % 0.00 in 287 W/m2
15:41 64.6 °F 54.2 °F 29.93 in SW 15.0 mph 25.0 mph 69 % 0.00 in 186 W/m2
15:46 64.2 °F 53.8 °F 29.93 in SW 16.0 mph 29.0 mph 69 % 0.00 in 236 W/m2
15:51 64.2 °F 54.6 °F 29.93 in SW 14.0 mph 29.0 mph 71 % 0.00 in 288 W/m2
15:56 64.2 °F 54.2 °F 29.93 in SSW 13.0 mph 25.0 mph 70 % 0.00 in 624 W/m2
16:01 64.8 °F 54.7 °F 29.92 in SSW 13.0 mph 23.0 mph 70 % 0.00 in 575 W/m2
16:07 64.9 °F 54.5 °F 29.92 in SSW 12.0 mph 20.0 mph 69 % 0.00 in 253 W/m2
16:12 64.8 °F 53.9 °F 29.92 in SSW 14.0 mph 25.0 mph 68 % 0.00 in 190 W/m2
16:17 64.0 °F 53.7 °F 29.92 in SW 16.0 mph 25.0 mph 69 % 0.00 in 216 W/m2
16:22 63.9 °F 53.9 °F 29.92 in SSW 16.0 mph 28.0 mph 70 % 0.00 in 292 W/m2
16:27 63.9 °F 53.9 °F 29.92 in SW 16.0 mph 28.0 mph 70 % 0.00 in 206 W/m2
16:32 63.9 °F 53.9 °F 29.92 in SW 16.0 mph 29.0 mph 70 % 0.00 in 176 W/m2
16:37 63.9 °F 53.9 °F 29.92 in SSW 15.0 mph 29.0 mph 70 % 0.00 in 207 W/m2
16:42 64.2 °F 53.8 °F 29.92 in SSW 12.0 mph 23.0 mph 69 % 0.00 in 264 W/m2
16:47 64.4 °F 53.6 °F 29.92 in SSW 11.0 mph 24.0 mph 68 % 0.00 in 213 W/m2
16:52 64.4 °F 52.8 °F 29.92 in SW 14.0 mph 30.0 mph 66 % 0.00 in 260 W/m2
16:57 64.4 °F 52.8 °F 29.92 in SW 16.0 mph 30.0 mph 66 % 0.00 in 214 W/m2
17:02 64.4 °F 52.0 °F 29.92 in SW 16.0 mph 28.0 mph 64 % 0.00 in 234 W/m2
17:07 64.6 °F 51.7 °F 29.91 in SW 17.0 mph 28.0 mph 63 % 0.00 in 381 W/m2
17:12 64.8 °F 51.9 °F 29.91 in SW 17.0 mph 29.0 mph 63 % 0.00 in 302 W/m2
17:17 64.9 °F 52.0 °F 29.91 in SW 17.0 mph 29.0 mph 63 % 0.00 in 316 W/m2
17:22 65.1 °F 51.8 °F 29.91 in SSW 15.0 mph 27.0 mph 62 % 0.00 in 339 W/m2
17:27 65.1 °F 51.8 °F 29.91 in SSW 14.0 mph 28.0 mph 62 % 0.00 in 144 W/m2
17:32 64.8 °F 51.9 °F 29.91 in SSW 15.0 mph 28.0 mph 63 % 0.00 in 274 W/m2
17:37 64.8 °F 51.9 °F 29.91 in SSW 15.0 mph 27.0 mph 63 % 0.00 in 163 W/m2
17:42 64.6 °F 51.7 °F 29.90 in SSW 14.0 mph 25.0 mph 63 % 0.00 in 125 W/m2
17:47 64.4 °F 52.0 °F 29.90 in SSW 12.0 mph 24.0 mph 64 % 0.00 in 128 W/m2
17:52 64.2 °F 52.2 °F 29.90 in SSW 10.0 mph 21.0 mph 65 % 0.00 in 95 W/m2
17:57 64.0 °F 52.0 °F 29.90 in SSW 10.0 mph 21.0 mph 65 % 0.00 in 76 W/m2
18:02 64.0 °F 52.0 °F 29.90 in SSW 10.0 mph 16.0 mph 65 % 0.00 in 77 W/m2
18:07 64.0 °F 52.4 °F 29.90 in SSW 9.0 mph 16.0 mph 66 % 0.00 in 69 W/m2
18:12 63.9 °F 52.7 °F 29.90 in SSW 9.0 mph 15.0 mph 67 % 0.00 in 91 W/m2
18:17 63.9 °F 52.7 °F 29.90 in SSW 8.0 mph 15.0 mph 67 % 0.00 in 109 W/m2
18:22 63.9 °F 52.3 °F 29.90 in SSW 8.0 mph 15.0 mph 66 % 0.00 in 88 W/m2
18:27 63.9 °F 52.3 °F 29.90 in SSW 7.0 mph 14.0 mph 66 % 0.00 in 74 W/m2
18:32 63.7 °F 52.1 °F 29.90 in SSW 7.0 mph 13.0 mph 66 % 0.00 in 76 W/m2
18:37 63.7 °F 52.1 °F 29.90 in SSW 7.0 mph 14.0 mph 66 % 0.00 in 72 W/m2
18:42 63.7 °F 52.1 °F 29.90 in SSW 6.0 mph 14.0 mph 66 % 0.00 in 65 W/m2
18:47 63.7 °F 51.7 °F 29.89 in SSW 7.0 mph 15.0 mph 65 % 0.00 in 63 W/m2
18:52 63.7 °F 51.3 °F 29.89 in South 8.0 mph 15.0 mph 64 % 0.00 in 49 W/m2
18:57 63.7 °F 50.4 °F 29.89 in SSW 9.0 mph 18.0 mph 62 % 0.00 in 39 W/m2
19:02 63.5 °F 50.7 °F 29.89 in SSW 8.0 mph 18.0 mph 63 % 0.00 in 32 W/m2
19:07 63.3 °F 50.9 °F 29.89 in SSW 5.0 mph 9.0 mph 64 % 0.00 in 30 W/m2
19:12 63.1 °F 50.3 °F 29.89 in South 5.0 mph 14.0 mph 63 % 0.00 in 21 W/m2
19:17 63.1 °F 49.9 °F 29.89 in South 8.0 mph 18.0 mph 62 % 0.00 in 16 W/m2
19:22 63.0 °F 49.3 °F 29.89 in South 9.0 mph 18.0 mph 61 % 0.00 in 11 W/m2
19:27 63.0 °F 49.7 °F 29.89 in South 8.0 mph 15.0 mph 62 % 0.00 in 9 W/m2
19:32 62.8 °F 49.6 °F 29.89 in South 6.0 mph 11.0 mph 62 % 0.00 in 7 W/m2
19:37 62.4 °F 49.2 °F 29.89 in South 6.0 mph 13.0 mph 62 % 0.00 in 7 W/m2
19:43 62.2 °F 49.1 °F 29.89 in South 7.0 mph 15.0 mph 62 % 0.00 in 0 W/m2
19:48 62.2 °F 48.6 °F 29.89 in South 8.0 mph 16.0 mph 61 % 0.00 in 0 W/m2
19:53 62.1 °F 48.4 °F 29.89 in South 8.0 mph 16.0 mph 61 % 0.00 in 0 W/m2
19:58 62.1 °F 48.4 °F 29.89 in South 9.0 mph 15.0 mph 61 % 0.00 in 0 W/m2
20:03 62.1 °F 48.4 °F 29.89 in South 8.0 mph 16.0 mph 61 % 0.00 in 0 W/m2
20:08 61.9 °F 48.3 °F 29.89 in South 8.0 mph 16.0 mph 61 % 0.00 in 0 W/m2
20:13 61.9 °F 48.3 °F 29.89 in South 9.0 mph 16.0 mph 61 % 0.00 in 0 W/m2
20:18 61.7 °F 48.1 °F 29.89 in South 8.0 mph 15.0 mph 61 % 0.00 in 0 W/m2
20:23 61.5 °F 47.9 °F 29.89 in South 7.0 mph 15.0 mph 61 % 0.00 in 0 W/m2
20:28 61.3 °F 48.2 °F 29.89 in South 6.0 mph 12.0 mph 62 % 0.00 in 0 W/m2
20:33 61.3 °F 48.2 °F 29.89 in South 5.0 mph 11.0 mph 62 % 0.00 in 0 W/m2
20:38 61.2 °F 48.0 °F 29.88 in South 5.0 mph 11.0 mph 62 % 0.00 in 0 W/m2
20:43 61.0 °F 48.3 °F 29.88 in South 4.0 mph 9.0 mph 63 % 0.00 in 0 W/m2
20:48 60.8 °F 48.1 °F 29.88 in SSE 4.0 mph 7.0 mph 63 % 0.00 in 0 W/m2
20:53 60.4 °F 47.8 °F 29.88 in SSE 5.0 mph 10.0 mph 63 % 0.00 in 0 W/m2
20:58 60.4 °F 48.2 °F 29.88 in SE 6.0 mph 10.0 mph 64 % 0.00 in 0 W/m2
21:03 60.3 °F 48.0 °F 29.88 in SSE 4.0 mph 9.0 mph 64 % 0.00 in 0 W/m2
21:08 60.1 °F 47.9 °F 29.88 in SE 3.0 mph 6.0 mph 64 % 0.00 in 0 W/m2
21:13 59.9 °F 48.1 °F 29.88 in SE 3.0 mph 6.0 mph 65 % 0.00 in 0 W/m2
21:18 59.7 °F 48.3 °F 29.88 in SE 3.0 mph 7.0 mph 66 % 0.00 in 0 W/m2
21:23 59.7 °F 48.3 °F 29.88 in SSE 4.0 mph 7.0 mph 66 % 0.00 in 0 W/m2
21:28 59.7 °F 48.3 °F 29.88 in South 5.0 mph 11.0 mph 66 % 0.00 in 0 W/m2
21:33 59.9 °F 48.9 °F 29.88 in South 6.0 mph 11.0 mph 67 % 0.00 in 0 W/m2
21:38 60.1 °F 49.1 °F 29.87 in South 6.0 mph 18.0 mph 67 % 0.00 in 0 W/m2
21:43 60.1 °F 49.1 °F 29.88 in South 6.0 mph 18.0 mph 67 % 0.00 in 0 W/m2
21:48 60.1 °F 49.1 °F 29.87 in SSW 7.0 mph 13.0 mph 67 % 0.00 in 0 W/m2
21:53 60.3 °F 49.3 °F 29.87 in SSW 7.0 mph 13.0 mph 67 % 0.00 in 0 W/m2
21:58 60.3 °F 49.3 °F 29.88 in South 7.0 mph 13.0 mph 67 % 0.00 in 0 W/m2
22:03 60.3 °F 49.3 °F 29.87 in South 7.0 mph 20.0 mph 67 % 0.00 in 0 W/m2
22:08 60.3 °F 49.3 °F 29.87 in South 7.0 mph 20.0 mph 67 % 0.00 in 0 W/m2
22:13 60.3 °F 49.7 °F 29.87 in South 7.0 mph 13.0 mph 68 % 0.00 in 0 W/m2
22:18 60.1 °F 49.5 °F 29.87 in South 7.0 mph 14.0 mph 68 % 0.00 in 0 W/m2
22:23 60.1 °F 49.5 °F 29.87 in South 6.0 mph 14.0 mph 68 % 0.00 in 0 W/m2
22:28 60.1 °F 49.5 °F 29.86 in South 7.0 mph 13.0 mph 68 % 0.00 in 0 W/m2
22:33 60.1 °F 49.5 °F 29.86 in South 8.0 mph 15.0 mph 68 % 0.00 in 0 W/m2
22:38 60.1 °F 49.5 °F 29.86 in South 8.0 mph 15.0 mph 68 % 0.00 in 0 W/m2
22:43 60.1 °F 49.5 °F 29.86 in South 7.0 mph 15.0 mph 68 % 0.00 in 0 W/m2
22:48 60.1 °F 49.5 °F 29.86 in South 7.0 mph 15.0 mph 68 % 0.00 in 0 W/m2
22:53 59.9 °F 49.3 °F 29.86 in South 6.0 mph 13.0 mph 68 % 0.00 in 0 W/m2
22:58 59.7 °F 49.5 °F 29.85 in South 6.0 mph 12.0 mph 69 % 0.00 in 0 W/m2
23:03 59.7 °F 49.5 °F 29.85 in South 6.0 mph 12.0 mph 69 % 0.00 in 0 W/m2
23:08 59.7 °F 49.9 °F 29.85 in South 7.0 mph 14.0 mph 70 % 0.00 in 0 W/m2
23:13 59.5 °F 49.7 °F 29.85 in South 7.0 mph 14.0 mph 70 % 0.00 in 0 W/m2
23:18 59.5 °F 49.7 °F 29.85 in South 7.0 mph 18.0 mph 70 % 0.00 in 0 W/m2
23:23 59.5 °F 49.7 °F 29.85 in South 7.0 mph 18.0 mph 70 % 0.00 in 0 W/m2
23:28 59.5 °F 49.4 °F 29.84 in South 6.0 mph 15.0 mph 69 % 0.00 in 0 W/m2
23:33 59.5 °F 49.7 °F 29.84 in South 7.0 mph 15.0 mph 70 % 0.00 in 0 W/m2
23:39 59.5 °F 49.7 °F 29.84 in South 7.0 mph 16.0 mph 70 % 0.00 in 0 W/m2
23:44 59.5 °F 49.7 °F 29.84 in South 7.0 mph 16.0 mph 70 % 0.00 in 0 W/m2
23:49 59.4 °F 49.6 °F 29.84 in South 6.0 mph 13.0 mph 70 % 0.00 in 0 W/m2
23:54 59.4 °F 49.6 °F 29.84 in South 5.0 mph 10.0 mph 70 % 0.00 in 0 W/m2
23:59 59.2 °F 49.8 °F 29.84 in South 6.0 mph 11.0 mph 71 % 0.00 in 0 W/m2
Delerius-Weather
Compliments of Weather Underground - 2.25 mb

Data updates at regular intervals.